| time (UTC) | temp F | wind direction | speed MPH | gust MPH | rain 1hr in | rain 24hr in | rain mn in | humidity % | barometer mb |
| 20260503231536 | 59 | 286 | 5.0 | 16.0 | 0.00 | 0.00 | 0.00 | 46 | 1011.6 |
| 20260503230017 | 59 | 278 | 8.0 | 18.0 | 0.00 | 0.00 | 0.00 | 47 | 1011.5 |
| 20260503224512 | 59 | 276 | 12.0 | 19.0 | 0.00 | 0.00 | 0.00 | 47 | 1011.5 |
| 20260503223010 | 59 | 347 | 12.0 | 20.0 | 0.00 | 0.00 | 0.00 | 43 | 1011.2 |
| 20260503221506 | 59 | 295 | 10.0 | 24.0 | 0.00 | 0.00 | 0.00 | 50 | 1011.3 |
| 20260503220108 | 59 | 278 | 10.0 | 24.0 | 0.00 | 0.00 | 0.00 | 47 | 1011.2 |
| 20260503214549 | 58 | 270 | 13.0 | 24.0 | 0.00 | 0.00 | 0.00 | 45 | 1011.1 |
| 20260503213045 | 58 | 274 | 13.0 | 28.0 | 0.00 | 0.00 | 0.00 | 49 | 1011.1 |
| 20260503211558 | 58 | 319 | 11.0 | 22.0 | 0.00 | 0.00 | 0.00 | 45 | 1011.0 |
| 20260503210022 | 58 | 334 | 11.0 | 22.0 | 0.00 | 0.00 | 0.00 | 48 | 1010.9 |
| 20260503204520 | 58 | 285 | 13.0 | 25.0 | 0.00 | 0.00 | 0.00 | 46 | 1010.8 |
| 20260503203019 | 57 | 304 | 13.0 | 24.0 | 0.00 | 0.00 | 0.00 | 45 | 1010.8 |
| 20260503201517 | 57 | 293 | 13.0 | 22.0 | 0.00 | 0.00 | 0.00 | 47 | 1010.8 |
| 20260503200119 | 56 | 283 | 13.0 | 25.0 | 0.00 | 0.00 | 0.00 | 46 | 1010.9 |
| 20260503194604 | 56 | 357 | 13.0 | 28.0 | 0.00 | 0.00 | 0.00 | 48 | 1011.1 |
| 20260503193102 | 56 | 316 | 12.0 | 24.0 | 0.00 | 0.00 | 0.00 | 49 | 1011.1 |
| 20260503191555 | 56 | 295 | 14.0 | 23.0 | 0.00 | 0.00 | 0.00 | 51 | 1011.4 |
| 20260503190049 | 55 | 309 | 13.0 | 25.0 | 0.00 | 0.00 | 0.00 | 56 | 1011.5 |
| 20260503184537 | 55 | 248 | 10.0 | 22.0 | 0.00 | 0.00 | 0.00 | 51 | 1011.5 |
| 20260503183023 | 54 | 233 | 15.0 | 25.0 | 0.00 | 0.00 | 0.00 | 52 | 1011.6 |
| 20260503181520 | 54 | 311 | 13.0 | 25.0 | 0.00 | 0.00 | 0.00 | 53 | 1011.7 |
| 20260503180123 | 53 | 311 | 14.0 | 26.0 | 0.00 | 0.00 | 0.00 | 52 | 1011.8 |
| 20260503174601 | 53 | 277 | 14.0 | 26.0 | 0.00 | 0.00 | 0.00 | 54 | 1011.8 |
| 20260503173109 | 53 | 323 | 17.0 | 25.0 | 0.00 | 0.00 | 0.00 | 57 | 1012.0 |
| 20260503171556 | 53 | 332 | 11.0 | 27.0 | 0.00 | 0.00 | 0.00 | 52 | 1011.8 |
| 20260503150107 | 51 | 313 | 11.0 | 21.0 | 0.00 | 0.00 | 0.00 | 61 | 1012.2 |
| 20260503110106 | 0 | 0.0 | 0.0 | 0.00 | 0.00 | 0.00 | 1010.7 | ||
| 20260503081602 | 50 | 345 | 4.0 | 11.0 | 0.00 | 0.00 | 0.00 | 69 | 1008.9 |
| 20260503080107 | 50 | 303 | 4.0 | 13.0 | 0.00 | 0.00 | 0.00 | 69 | 1009.0 |
| 20260503071544 | 51 | 1 | 4.0 | 12.0 | 0.00 | 0.00 | 0.00 | 65 | 1009.1 |
| 20260503060118 | 52 | 356 | 10.0 | 16.0 | 0.00 | 0.00 | 0.00 | 62 | 1009.1 |
| 20260503054605 | 52 | 288 | 7.0 | 16.0 | 0.00 | 0.00 | 0.00 | 65 | 1009.2 |
| 20260503053057 | 53 | 302 | 6.0 | 15.0 | 0.00 | 0.00 | 0.00 | 67 | 1009.5 |
| 20260503051551 | 53 | 326 | 8.0 | 17.0 | 0.00 | 0.00 | 0.00 | 64 | 1009.4 |
| 20260503050048 | 53 | 322 | 6.0 | 12.0 | 0.00 | 0.00 | 0.00 | 68 | 1009.5 |
| 20260503044529 | 53 | 330 | 5.0 | 15.0 | 0.00 | 0.00 | 0.00 | 69 | 1009.7 |
| 20260503043027 | 53 | 342 | 9.0 | 15.0 | 0.00 | 0.00 | 0.00 | 68 | 1009.9 |
| 20260503041524 | 53 | 318 | 9.0 | 13.0 | 0.00 | 0.00 | 0.00 | 67 | 1010.1 |
| 20260503040006 | 53 | 13 | 6.0 | 16.0 | 0.00 | 0.00 | 0.00 | 70 | 1010.2 |
| 20260503034504 | 52 | 316 | 8.0 | 13.0 | 0.00 | 0.00 | 0.00 | 75 | 1010.0 |
| 20260503033003 | 52 | 304 | 5.0 | 11.0 | 0.00 | 0.00 | 0.00 | 80 | 1010.0 |
| 20260503031604 | 52 | 278 | 3.0 | 10.0 | 0.00 | 0.00 | 0.00 | 81 | 1010.2 |
| 20260503030127 | 52 | 302 | 4.0 | 9.0 | 0.00 | 0.00 | 0.00 | 81 | 1010.1 |
| 20260503024543 | 51 | 278 | 2.0 | 8.0 | 0.00 | 0.00 | 0.00 | 89 | 1010.0 |
| 20260503023037 | 51 | 280 | 3.0 | 7.0 | 0.00 | 0.00 | 0.00 | 89 | 1010.0 |
| 20260503021536 | 52 | 263 | 2.0 | 9.0 | 0.00 | 0.00 | 0.00 | 90 | 1010.3 |
| 20260503020010 | 52 | 269 | 4.0 | 8.0 | 0.00 | 0.00 | 0.00 | 91 | 1010.4 |
| 20260503014507 | 52 | 248 | 8.0 | 12.0 | 0.00 | 0.00 | 0.00 | 90 | 1010.1 |
| 20260503013004 | 52 | 251 | 7.0 | 11.0 | 0.00 | 0.00 | 0.00 | 90 | 1010.4 |
| 20260503011506 | 53 | 233 | 8.0 | 11.0 | 0.00 | 0.00 | 0.00 | 88 | 1010.3 |
| 20260503010110 | 52 | 242 | 7.0 | 10.0 | 0.00 | 0.00 | 0.00 | 86 | 1010.1 |
| 20260503004543 | 52 | 229 | 6.0 | 9.0 | 0.00 | 0.00 | 0.00 | 87 | 1010.0 |
| 20260503003050 | 52 | 162 | 3.0 | 8.0 | 0.00 | 0.00 | 0.00 | 89 | 1009.9 |
| 20260503001538 | 51 | 231 | 1.0 | 4.0 | 0.00 | 0.00 | 0.00 | 89 | 1009.9 |
| 20260503000028 | 51 | 165 | 0.0 | 2.0 | 0.00 | 0.00 | 0.00 | 86 | 1010.1 |
| 20260502234511 | 52 | 209 | 0.0 | 3.0 | 0.00 | 0.00 | 0.00 | 85 | 1010.1 |
| 20260502233005 | 53 | 207 | 1.0 | 3.0 | 0.00 | 0.00 | 0.00 | 85 | 1010.1 |